TimeMDT,TemperatureF,Dew PointF,Humidity,Sea Level PressureIn,VisibilityMPH,Wind Direction,Wind SpeedMPH,Gust SpeedMPH,PrecipitationIn,Events,Conditions,WindDirDegrees,DateUTC
12:00 AM,-35,-41,54,29.98,,NNE,12.7,,,,,20,2014-03-10 06:00:00
12:00 AM,-35.3,-41.4,72,29.98,-9999.0,North,12.7,-,N/A,,Unknown,10,2014-03-10 06:00:00
1:00 AM,-36.4,-42.9,70,29.99,-9999.0,NNE,13.8,-,N/A,,Unknown,20,2014-03-10 07:00:00
2:00 AM,-37.5,-44.1,69,30.01,-9999.0,North,15.0,-,N/A,,Unknown,10,2014-03-10 08:00:00
3:00 AM,-38.7,-45.6,69,30.03,-9999.0,North,15.0,-,N/A,,Unknown,10,2014-03-10 09:00:00
4:00 AM,-39.5,-46.3,68,30.05,-9999.0,North,15.0,-,N/A,,Unknown,360,2014-03-10 10:00:00
5:00 AM,-39.8,-47.0,67,30.06,-9999.0,North,9.2,-,N/A,,Unknown,350,2014-03-10 11:00:00
6:00 AM,-40,-47,47,30.09,,NNW,9.2,,,,,340,2014-03-10 12:00:00
6:00 AM,-40.4,-47.4,68,30.09,-9999.0,NNW,11.5,-,N/A,,Unknown,340,2014-03-10 12:00:00
7:00 AM,-40.9,-48.1,67,30.10,-9999.0,North,16.1,-,N/A,,Unknown,350,2014-03-10 13:00:00
8:00 AM,-41.3,-48.5,67,30.12,-9999.0,NNW,12.7,-,N/A,,Unknown,330,2014-03-10 14:00:00
9:00 AM,-41.4,-48.6,67,30.14,-9999.0,NW,8.1,-,N/A,,Unknown,320,2014-03-10 15:00:00
10:00 AM,-40.5,-47.9,66,30.16,-9999.0,NNW,13.8,-,N/A,,Unknown,340,2014-03-10 16:00:00
11:00 AM,-38.9,-46.3,66,30.18,-9999.0,NNW,12.7,-,N/A,,Unknown,330,2014-03-10 17:00:00
12:00 PM,-37,-44,48,30.19,,NNW,12.7,,,,,330,2014-03-10 18:00:00
12:00 PM,-37.1,-44.3,67,30.19,-9999.0,NNW,11.5,-,N/A,,Unknown,330,2014-03-10 18:00:00
1:00 PM,-35.9,-43.1,68,30.20,-9999.0,NW,11.5,-,N/A,,Unknown,310,2014-03-10 19:00:00
2:00 PM,-34.8,-42.0,68,30.22,-9999.0,WNW,15.0,-,N/A,,Unknown,300,2014-03-10 20:00:00
3:00 PM,-34.1,-41.1,68,30.23,-9999.0,WNW,12.7,-,N/A,,Unknown,290,2014-03-10 21:00:00
4:00 PM,-33.3,-40.2,69,30.24,-9999.0,WNW,17.3,-,N/A,,Unknown,290,2014-03-10 22:00:00
5:00 PM,-32.6,-39.5,69,30.25,-9999.0,West,15.0,-,N/A,,Unknown,280,2014-03-10 23:00:00
6:00 PM,-32,-39,52,30.26,,West,13.8,,,,,270,2014-03-11 00:00:00
6:00 PM,-32.3,-38.9,70,30.26,-9999.0,West,13.8,-,N/A,,Unknown,270,2014-03-11 00:00:00
7:00 PM,-32.3,-38.7,71,30.27,-9999.0,West,17.3,-,N/A,,Unknown,280,2014-03-11 01:00:00
8:00 PM,-32.4,-38.9,71,30.27,-9999.0,West,15.0,-,N/A,,Unknown,270,2014-03-11 02:00:00
9:00 PM,-32.8,-39.1,71,30.26,-9999.0,West,13.8,-,N/A,,Unknown,260,2014-03-11 03:00:00
10:00 PM,-33.5,-39.8,71,30.25,-9999.0,West,17.3,-,N/A,,Unknown,260,2014-03-11 04:00:00
11:00 PM,-34.4,-40.7,71,30.26,-9999.0,West,16.1,-,N/A,,Unknown,260,2014-03-11 05:00:00